| time (UTC) | temp F | wind direction | speed MPH | gust MPH | rain 1hr in | rain 24hr in | rain mn in | humidity % | barometer mb |
| 20260505152659 | 67 | 340 | 4.0 | 13.0 | 0.00 | 0.01 | 0.01 | 61 | 970.6 |
| 20260505152200 | 67 | 306 | 4.0 | 12.0 | 0.00 | 0.01 | 0.01 | 61 | 970.6 |
| 20260505151700 | 67 | 84 | 2.0 | 15.0 | 0.00 | 0.01 | 0.01 | 61 | 970.6 |
| 20260505151159 | 66 | 220 | 4.0 | 15.0 | 0.00 | 0.01 | 0.01 | 61 | 970.9 |
| 20260505150158 | 65 | 266 | 2.0 | 13.0 | 0.00 | 0.01 | 0.01 | 64 | 970.6 |
| 20260505140155 | 63 | 213 | 9.0 | 15.0 | 0.00 | 0.01 | 0.01 | 65 | 970.6 |
| 20260505130152 | 61 | 221 | 1.0 | 6.0 | 0.01 | 0.01 | 0.01 | 71 | 970.2 |
| 20260505124652 | 61 | 190 | 0.0 | 6.0 | 0.01 | 0.01 | 0.01 | 70 | 970.2 |
| 20260505123651 | 61 | 230 | 0.0 | 5.0 | 0.01 | 0.01 | 0.01 | 71 | 969.9 |
| 20260505123151 | 61 | 339 | 0.0 | 4.0 | 0.01 | 0.01 | 0.01 | 70 | 970.2 |
| 20260505122650 | 61 | 185 | 3.0 | 4.0 | 0.01 | 0.01 | 0.01 | 70 | 969.9 |
| 20260505122150 | 61 | 29 | 0.0 | 4.0 | 0.01 | 0.01 | 0.01 | 70 | 969.9 |
| 20260505121650 | 61 | 278 | 0.0 | 4.0 | 0.01 | 0.01 | 0.01 | 70 | 969.5 |
| 20260505121150 | 61 | 330 | 0.0 | 4.0 | 0.01 | 0.01 | 0.01 | 69 | 969.9 |
| 20260505120149 | 62 | 315 | 0.0 | 4.0 | 0.00 | 0.00 | 0.00 | 68 | 970.2 |
| 20260505115148 | 62 | 228 | 0.0 | 3.0 | 0.00 | 0.00 | 0.00 | 67 | 969.9 |
| 20260505114648 | 62 | 333 | 1.0 | 5.0 | 0.00 | 0.00 | 0.00 | 67 | 969.9 |
| 20260505114148 | 62 | 24 | 1.0 | 5.0 | 0.00 | 0.00 | 0.00 | 67 | 969.5 |
| 20260505113647 | 61 | 273 | 2.0 | 5.0 | 0.00 | 0.00 | 0.00 | 68 | 969.9 |
| 20260505113148 | 62 | 265 | 1.0 | 5.0 | 0.00 | 0.00 | 0.00 | 67 | 969.9 |
| 20260505112647 | 62 | 225 | 2.0 | 6.0 | 0.00 | 0.00 | 0.00 | 67 | 969.9 |
| 20260505112147 | 62 | 219 | 1.0 | 6.0 | 0.00 | 0.00 | 0.00 | 67 | 969.5 |
| 20260505111646 | 61 | 237 | 1.0 | 6.0 | 0.00 | 0.00 | 0.00 | 67 | 969.5 |
| 20260505111146 | 61 | 215 | 3.0 | 7.0 | 0.00 | 0.00 | 0.00 | 68 | 969.9 |
| 20260505110646 | 61 | 231 | 2.0 | 7.0 | 0.00 | 0.00 | 0.00 | 68 | 969.5 |
| 20260505110146 | 61 | 335 | 0.0 | 3.0 | 0.00 | 0.00 | 0.00 | 68 | 969.5 |
| 20260505102144 | 62 | 232 | 2.0 | 5.0 | 0.00 | 0.00 | 0.00 | 67 | 969.5 |
| 20260505101643 | 62 | 333 | 0.0 | 5.0 | 0.00 | 0.00 | 0.00 | 67 | 969.2 |
| 20260505100643 | 61 | 277 | 2.0 | 7.0 | 0.00 | 0.00 | 0.00 | 67 | 969.2 |
| 20260505100143 | 61 | 327 | 3.0 | 7.0 | 0.00 | 0.00 | 0.00 | 68 | 969.2 |
| 20260505095642 | 61 | 250 | 2.0 | 4.0 | 0.00 | 0.00 | 0.00 | 69 | 969.2 |
| 20260505094642 | 61 | 205 | 2.0 | 4.0 | 0.00 | 0.00 | 0.00 | 68 | 968.9 |
| 20260505094142 | 61 | 337 | 2.0 | 6.0 | 0.00 | 0.00 | 0.00 | 68 | 969.2 |
| 20260505093141 | 61 | 283 | 3.0 | 4.0 | 0.00 | 0.00 | 0.00 | 68 | 968.9 |
| 20260505092640 | 61 | 318 | 3.0 | 4.0 | 0.00 | 0.00 | 0.00 | 68 | 968.9 |
| 20260505092140 | 62 | 206 | 1.0 | 4.0 | 0.00 | 0.00 | 0.00 | 67 | 968.9 |
| 20260505091640 | 62 | 247 | 2.0 | 4.0 | 0.00 | 0.00 | 0.00 | 67 | 968.9 |
| 20260505091139 | 62 | 212 | 3.0 | 4.0 | 0.00 | 0.00 | 0.00 | 67 | 968.9 |
| 20260505090640 | 62 | 0 | 0.0 | 5.0 | 0.00 | 0.00 | 0.00 | 67 | 968.9 |
| 20260505090139 | 62 | 257 | 2.0 | 5.0 | 0.00 | 0.00 | 0.00 | 66 | 968.5 |
| 20260505085639 | 62 | 289 | 0.0 | 6.0 | 0.00 | 0.00 | 0.00 | 66 | 968.5 |
| 20260505085138 | 63 | 216 | 3.0 | 6.0 | 0.00 | 0.00 | 0.00 | 66 | 968.9 |
| 20260505084638 | 63 | 344 | 3.0 | 8.0 | 0.00 | 0.00 | 0.00 | 66 | 968.5 |
| 20260505084138 | 63 | 236 | 4.0 | 8.0 | 0.00 | 0.00 | 0.00 | 66 | 968.5 |
| 20260505083641 | 62 | 204 | 2.0 | 11.0 | 0.00 | 0.00 | 0.00 | 68 | 968.5 |
| 20260505083137 | 63 | 258 | 2.0 | 12.0 | 0.00 | 0.00 | 0.00 | 67 | 968.5 |
| 20260505082637 | 63 | 309 | 5.0 | 12.0 | 0.00 | 0.00 | 0.00 | 66 | 968.2 |
| 20260505082137 | 64 | 319 | 6.0 | 7.0 | 0.00 | 0.00 | 0.00 | 63 | 968.5 |
| 20260505081637 | 64 | 319 | 3.0 | 8.0 | 0.00 | 0.00 | 0.00 | 62 | 968.2 |
| 20260505081137 | 64 | 175 | 2.0 | 9.0 | 0.00 | 0.00 | 0.00 | 62 | 968.2 |
| 20260505080130 | 64 | 223 | 9.0 | 10.0 | 0.00 | 0.00 | 0.00 | 61 | 968.2 |
| 20260505075130 | 64 | 208 | 5.0 | 8.0 | 0.00 | 0.00 | 0.00 | 62 | 967.9 |
| 20260505074630 | 64 | 217 | 3.0 | 6.0 | 0.00 | 0.00 | 0.00 | 62 | 967.9 |
| 20260505074129 | 64 | 125 | 1.0 | 7.0 | 0.00 | 0.00 | 0.00 | 62 | 967.9 |
| 20260505073629 | 64 | 214 | 4.0 | 13.0 | 0.00 | 0.00 | 0.00 | 62 | 967.9 |
| 20260505073130 | 64 | 233 | 2.0 | 13.0 | 0.00 | 0.00 | 0.00 | 62 | 967.9 |
| 20260505072630 | 64 | 129 | 2.0 | 8.0 | 0.00 | 0.00 | 0.00 | 62 | 967.9 |
| 20260505072130 | 64 | 264 | 2.0 | 11.0 | 0.00 | 0.00 | 0.00 | 62 | 967.9 |
| 20260505071130 | 64 | 240 | 2.0 | 5.0 | 0.00 | 0.00 | 0.00 | 63 | 967.9 |
| 20260505070629 | 64 | 334 | 2.0 | 7.0 | 0.00 | 0.00 | 0.00 | 63 | 967.9 |
| 20260505070130 | 64 | 326 | 2.0 | 7.0 | 0.00 | 0.00 | 0.00 | 63 | 967.9 |
| 20260505065630 | 64 | 220 | 2.0 | 8.0 | 0.00 | 0.00 | 0.00 | 63 | 967.9 |
| 20260505065130 | 64 | 72 | 1.0 | 8.0 | 0.00 | 0.00 | 0.00 | 63 | 967.9 |
| 20260505064130 | 64 | 204 | 1.0 | 5.0 | 0.00 | 0.00 | 0.00 | 63 | 967.5 |
| 20260505063630 | 64 | 299 | 3.0 | 7.0 | 0.00 | 0.00 | 0.00 | 63 | 968.2 |
| 20260505063130 | 64 | 216 | 1.0 | 7.0 | 0.00 | 0.00 | 0.00 | 63 | 967.9 |
| 20260505062634 | 64 | 212 | 1.0 | 7.0 | 0.00 | 0.00 | 0.00 | 63 | 967.9 |
| 20260505062130 | 64 | 98 | 2.0 | 5.0 | 0.00 | 0.00 | 0.00 | 63 | 968.2 |
| 20260505061630 | 64 | 328 | 0.0 | 9.0 | 0.00 | 0.00 | 0.00 | 63 | 968.2 |
| 20260505061129 | 64 | 221 | 6.0 | 9.0 | 0.00 | 0.00 | 0.00 | 63 | 968.2 |
| 20260505060629 | 64 | 320 | 0.0 | 9.0 | 0.00 | 0.00 | 0.00 | 62 | 968.2 |
| 20260505060129 | 64 | 112 | 1.0 | 9.0 | 0.00 | 0.00 | 0.00 | 62 | 968.2 |
| 20260505055129 | 65 | 154 | 4.0 | 7.0 | 0.00 | 0.00 | 0.00 | 61 | 968.2 |
| 20260505054628 | 65 | 267 | 0.0 | 7.0 | 0.00 | 0.00 | 0.00 | 61 | 968.5 |
| 20260505054128 | 65 | 275 | 3.0 | 7.0 | 0.00 | 0.00 | 0.00 | 61 | 968.5 |
| 20260505053628 | 65 | 275 | 1.0 | 6.0 | 0.00 | 0.00 | 0.00 | 62 | 968.5 |
| 20260505053128 | 65 | 207 | 3.0 | 7.0 | 0.00 | 0.00 | 0.00 | 62 | 968.5 |
| 20260505052628 | 65 | 193 | 2.0 | 9.0 | 0.00 | 0.00 | 0.00 | 62 | 968.9 |
| 20260505052127 | 65 | 199 | 2.0 | 9.0 | 0.00 | 0.00 | 0.00 | 62 | 968.5 |
| 20260505051627 | 65 | 264 | 0.0 | 6.0 | 0.00 | 0.00 | 0.00 | 61 | 968.9 |
| 20260505051128 | 65 | 309 | 1.0 | 12.0 | 0.00 | 0.00 | 0.00 | 61 | 968.9 |
| 20260505050126 | 65 | 38 | 1.0 | 7.0 | 0.00 | 0.00 | 0.00 | 61 | 968.9 |
| 20260505040624 | 65 | 348 | 0.0 | 8.0 | 0.00 | 0.00 | 0.00 | 62 | 968.9 |
| 20260505040123 | 65 | 125 | 2.0 | 11.0 | 0.00 | 0.00 | 0.00 | 62 | 968.9 |
| 20260505034122 | 64 | 307 | 0.0 | 7.0 | 0.00 | 0.00 | 0.00 | 62 | 968.9 |
| 20260505033122 | 63 | 41 | 4.0 | 7.0 | 0.00 | 0.00 | 0.00 | 62 | 968.9 |
| 20260505032621 | 63 | 98 | 2.0 | 7.0 | 0.00 | 0.00 | 0.00 | 62 | 968.9 |
| 20260505032121 | 64 | 318 | 2.0 | 6.0 | 0.00 | 0.00 | 0.00 | 62 | 968.9 |
| 20260505031621 | 63 | 253 | 2.0 | 6.0 | 0.00 | 0.00 | 0.00 | 62 | 968.9 |
| 20260505031120 | 63 | 230 | 1.0 | 4.0 | 0.00 | 0.00 | 0.00 | 62 | 968.9 |
| 20260505030620 | 63 | 51 | 2.0 | 5.0 | 0.00 | 0.00 | 0.00 | 62 | 969.2 |
| 20260505030120 | 64 | 248 | 0.0 | 5.0 | 0.00 | 0.00 | 0.00 | 61 | 968.9 |
| 20260505025620 | 64 | 257 | 0.0 | 6.0 | 0.00 | 0.00 | 0.00 | 61 | 969.2 |
| 20260505025120 | 64 | 212 | 1.0 | 6.0 | 0.00 | 0.00 | 0.00 | 61 | 969.2 |
| 20260505024620 | 64 | 48 | 0.0 | 4.0 | 0.00 | 0.00 | 0.00 | 61 | 968.9 |
| 20260505024119 | 64 | 186 | 2.0 | 6.0 | 0.00 | 0.00 | 0.00 | 61 | 968.9 |
| 20260505023618 | 64 | 249 | 2.0 | 6.0 | 0.00 | 0.00 | 0.00 | 61 | 968.9 |
| 20260505023118 | 64 | 75 | 0.0 | 7.0 | 0.00 | 0.00 | 0.00 | 61 | 969.2 |
| 20260505022618 | 64 | 248 | 2.0 | 7.0 | 0.00 | 0.00 | 0.00 | 60 | 969.2 |
| 20260505022122 | 64 | 48 | 1.0 | 5.0 | 0.00 | 0.00 | 0.00 | 60 | 969.2 |
| 20260505021618 | 64 | 251 | 2.0 | 4.0 | 0.00 | 0.00 | 0.00 | 59 | 969.2 |
| 20260505021118 | 65 | 131 | 3.0 | 4.0 | 0.00 | 0.00 | 0.00 | 59 | 969.2 |
| 20260505020617 | 65 | 207 | 3.0 | 9.0 | 0.00 | 0.00 | 0.00 | 59 | 969.2 |
| 20260505020117 | 65 | 201 | 2.0 | 9.0 | 0.00 | 0.00 | 0.00 | 58 | 969.2 |
| 20260505015616 | 65 | 317 | 2.0 | 7.0 | 0.00 | 0.00 | 0.00 | 58 | 969.2 |
| 20260505015117 | 65 | 293 | 1.0 | 7.0 | 0.00 | 0.00 | 0.00 | 58 | 969.2 |
| 20260505014616 | 65 | 218 | 0.0 | 6.0 | 0.00 | 0.00 | 0.00 | 58 | 969.2 |
| 20260505014116 | 65 | 306 | 1.0 | 7.0 | 0.00 | 0.00 | 0.00 | 57 | 969.2 |
| 20260505013616 | 66 | 244 | 0.0 | 7.0 | 0.00 | 0.00 | 0.00 | 57 | 969.2 |
| 20260505012615 | 66 | 17 | 0.0 | 11.0 | 0.00 | 0.00 | 0.00 | 56 | 968.9 |
| 20260505012115 | 66 | 234 | 3.0 | 7.0 | 0.00 | 0.00 | 0.00 | 55 | 969.2 |
| 20260505011615 | 66 | 194 | 2.0 | 8.0 | 0.00 | 0.00 | 0.00 | 55 | 969.2 |
| 20260505011114 | 67 | 223 | 4.0 | 12.0 | 0.00 | 0.00 | 0.00 | 55 | 968.9 |
| 20260505010614 | 67 | 217 | 3.0 | 12.0 | 0.00 | 0.00 | 0.00 | 54 | 968.9 |
| 20260505010113 | 67 | 349 | 4.0 | 10.0 | 0.00 | 0.00 | 0.00 | 54 | 968.9 |
| 20260505005113 | 67 | 17 | 0.0 | 12.0 | 0.00 | 0.00 | 0.00 | 54 | 968.9 |
| 20260505004613 | 67 | 193 | 2.0 | 10.0 | 0.00 | 0.00 | 0.00 | 53 | 968.9 |
| 20260505004113 | 67 | 227 | 3.0 | 10.0 | 0.00 | 0.00 | 0.00 | 53 | 968.9 |
| 20260505003613 | 68 | 309 | 5.0 | 12.0 | 0.00 | 0.00 | 0.00 | 53 | 968.5 |
| 20260505002615 | 68 | 172 | 2.0 | 9.0 | 0.00 | 0.00 | 0.00 | 52 | 968.5 |
| 20260505002111 | 68 | 238 | 2.0 | 8.0 | 0.00 | 0.00 | 0.00 | 52 | 968.5 |
| 20260505001612 | 68 | 221 | 4.0 | 8.0 | 0.00 | 0.00 | 0.00 | 52 | 968.5 |
| 20260505000110 | 69 | 174 | 1.0 | 10.0 | 0.00 | 0.00 | 0.00 | 51 | 968.2 |
| 20260504235611 | 69 | 220 | 2.0 | 10.0 | 0.00 | 0.00 | 0.00 | 50 | 968.2 |
| 20260504235110 | 70 | 222 | 2.0 | 9.0 | 0.00 | 0.00 | 0.00 | 49 | 967.9 |
| 20260504234109 | 70 | 172 | 0.0 | 9.0 | 0.00 | 0.00 | 0.00 | 49 | 967.9 |
| 20260504233609 | 70 | 350 | 2.0 | 9.0 | 0.00 | 0.00 | 0.00 | 49 | 967.9 |
| 20260504233109 | 71 | 208 | 3.0 | 8.0 | 0.00 | 0.00 | 0.00 | 48 | 967.9 |
| 20260504232608 | 71 | 248 | 2.0 | 11.0 | 0.00 | 0.00 | 0.00 | 48 | 967.9 |
| 20260504231108 | 71 | 316 | 3.0 | 12.0 | 0.00 | 0.00 | 0.00 | 47 | 967.9 |
| 20260504230608 | 71 | 224 | 3.0 | 12.0 | 0.00 | 0.00 | 0.00 | 46 | 968.2 |
| 20260504225607 | 72 | 248 | 3.0 | 13.0 | 0.00 | 0.00 | 0.00 | 47 | 968.2 |
| 20260504224607 | 71 | 213 | 13.0 | 14.0 | 0.00 | 0.00 | 0.00 | 48 | 968.5 |
| 20260504223605 | 71 | 211 | 5.0 | 17.0 | 0.00 | 0.00 | 0.00 | 48 | 968.2 |
| 20260504223104 | 71 | 216 | 5.0 | 11.0 | 0.00 | 0.00 | 0.00 | 48 | 968.5 |
| 20260504222105 | 71 | 314 | 4.0 | 13.0 | 0.00 | 0.00 | 0.00 | 48 | 968.5 |
| 20260504221604 | 71 | 280 | 3.0 | 13.0 | 0.00 | 0.00 | 0.00 | 48 | 968.5 |
| 20260504221104 | 72 | 142 | 4.0 | 9.0 | 0.00 | 0.00 | 0.00 | 48 | 968.5 |
| 20260504220604 | 72 | 288 | 4.0 | 11.0 | 0.00 | 0.00 | 0.00 | 47 | 968.5 |
| 20260504215603 | 71 | 194 | 2.0 | 11.0 | 0.00 | 0.00 | 0.00 | 48 | 968.5 |
| 20260504215102 | 71 | 233 | 6.0 | 13.0 | 0.00 | 0.00 | 0.00 | 48 | 968.5 |
| 20260504214602 | 72 | 112 | 2.0 | 13.0 | 0.00 | 0.00 | 0.00 | 46 | 968.5 |
| 20260504214102 | 72 | 190 | 2.0 | 10.0 | 0.00 | 0.00 | 0.00 | 47 | 968.5 |
| 20260504213602 | 72 | 246 | 3.0 | 9.0 | 0.00 | 0.00 | 0.00 | 47 | 968.5 |
| 20260504212603 | 70 | 205 | 3.0 | 12.0 | 0.00 | 0.00 | 0.00 | 48 | 968.5 |
| 20260504211102 | 71 | 225 | 2.0 | 12.0 | 0.00 | 0.00 | 0.00 | 48 | 968.9 |
| 20260504210602 | 71 | 348 | 5.0 | 13.0 | 0.00 | 0.00 | 0.00 | 48 | 968.5 |
| 20260504210101 | 71 | 230 | 7.0 | 14.0 | 0.00 | 0.00 | 0.00 | 48 | 968.9 |
| 20260504205601 | 70 | 285 | 1.0 | 14.0 | 0.00 | 0.00 | 0.00 | 49 | 968.9 |
| 20260504205100 | 70 | 227 | 1.0 | 11.0 | 0.00 | 0.00 | 0.00 | 48 | 968.9 |
| 20260504204100 | 71 | 332 | 1.0 | 19.0 | 0.00 | 0.00 | 0.00 | 48 | 968.9 |
| 20260504203603 | 71 | 243 | 4.0 | 19.0 | 0.00 | 0.00 | 0.00 | 46 | 968.9 |
| 20260504203100 | 71 | 263 | 2.0 | 13.0 | 0.00 | 0.00 | 0.00 | 47 | 968.9 |
| 20260504202559 | 73 | 207 | 4.0 | 13.0 | 0.00 | 0.00 | 0.00 | 45 | 968.9 |
| 20260504202059 | 72 | 247 | 5.0 | 12.0 | 0.00 | 0.00 | 0.00 | 45 | 968.9 |
| 20260504201559 | 73 | 290 | 2.0 | 12.0 | 0.00 | 0.00 | 0.00 | 46 | 968.9 |
| 20260504200558 | 71 | 59 | 2.0 | 11.0 | 0.00 | 0.00 | 0.00 | 45 | 969.2 |
| 20260504200058 | 72 | 212 | 5.0 | 12.0 | 0.00 | 0.00 | 0.00 | 45 | 969.2 |
| 20260504195558 | 72 | 239 | 4.0 | 12.0 | 0.00 | 0.00 | 0.00 | 45 | 969.2 |
| 20260504195057 | 71 | 183 | 0.0 | 10.0 | 0.00 | 0.00 | 0.00 | 45 | 969.2 |
| 20260504194557 | 72 | 350 | 4.0 | 9.0 | 0.00 | 0.00 | 0.00 | 45 | 968.9 |
| 20260504194057 | 72 | 220 | 2.0 | 9.0 | 0.00 | 0.00 | 0.00 | 47 | 969.2 |
| 20260504192556 | 71 | 218 | 6.0 | 11.0 | 0.00 | 0.00 | 0.00 | 46 | 969.5 |
| 20260504192055 | 72 | 297 | 4.0 | 11.0 | 0.00 | 0.00 | 0.00 | 46 | 969.5 |
| 20260504191556 | 71 | 6 | 3.0 | 9.0 | 0.00 | 0.00 | 0.00 | 46 | 969.9 |
| 20260504191055 | 70 | 273 | 5.0 | 11.0 | 0.00 | 0.00 | 0.00 | 48 | 969.9 |
| 20260504190555 | 70 | 310 | 3.0 | 11.0 | 0.00 | 0.00 | 0.00 | 47 | 969.5 |
| 20260504190054 | 70 | 338 | 1.0 | 9.0 | 0.00 | 0.00 | 0.00 | 47 | 969.9 |
| 20260504185554 | 70 | 69 | 3.0 | 15.0 | 0.00 | 0.00 | 0.00 | 47 | 969.9 |
| 20260504185054 | 69 | 187 | 4.0 | 15.0 | 0.00 | 0.00 | 0.00 | 48 | 969.9 |
| 20260504184554 | 69 | 204 | 6.0 | 15.0 | 0.00 | 0.00 | 0.00 | 47 | 970.2 |
| 20260504184057 | 70 | 198 | 2.0 | 13.0 | 0.00 | 0.00 | 0.00 | 47 | 970.2 |
| 20260504183053 | 70 | 242 | 4.0 | 15.0 | 0.00 | 0.00 | 0.00 | 47 | 970.2 |
| 20260504182053 | 69 | 198 | 2.0 | 11.0 | 0.00 | 0.00 | 0.00 | 48 | 970.2 |
| 20260504181552 | 69 | 169 | 5.0 | 11.0 | 0.00 | 0.00 | 0.00 | 46 | 969.9 |
| 20260504181052 | 69 | 233 | 5.0 | 11.0 | 0.00 | 0.00 | 0.00 | 47 | 970.2 |
| 20260504180551 | 69 | 308 | 4.0 | 8.0 | 0.00 | 0.00 | 0.00 | 48 | 970.2 |
| 20260504180051 | 69 | 244 | 3.0 | 10.0 | 0.00 | 0.00 | 0.00 | 47 | 970.2 |
| 20260504175551 | 68 | 136 | 4.0 | 10.0 | 0.00 | 0.00 | 0.00 | 47 | 970.6 |
| 20260504175051 | 68 | 213 | 7.0 | 14.0 | 0.00 | 0.00 | 0.00 | 48 | 970.6 |
| 20260504174551 | 69 | 249 | 6.0 | 14.0 | 0.00 | 0.00 | 0.00 | 46 | 970.6 |
| 20260504174051 | 69 | 247 | 4.0 | 13.0 | 0.00 | 0.00 | 0.00 | 45 | 970.6 |
| 20260504173050 | 67 | 166 | 2.0 | 11.0 | 0.00 | 0.00 | 0.00 | 47 | 970.6 |
| 20260504172550 | 67 | 199 | 8.0 | 14.0 | 0.00 | 0.00 | 0.00 | 46 | 970.9 |
| 20260504172049 | 68 | 341 | 7.0 | 14.0 | 0.00 | 0.00 | 0.00 | 45 | 970.6 |
| 20260504171549 | 67 | 16 | 2.0 | 12.0 | 0.00 | 0.00 | 0.00 | 48 | 970.6 |
| 20260504171049 | 67 | 152 | 2.0 | 10.0 | 0.00 | 0.00 | 0.00 | 46 | 970.6 |
| 20260504170548 | 66 | 198 | 2.0 | 12.0 | 0.00 | 0.00 | 0.00 | 47 | 970.9 |